This is the latest recevied weather packets stored in our database for station/object KM4CBK. If no packets are shown the sender has not sent any weather packets the latest 10 day(s).
| Time | Temp. | Humidity | Pressure | Rain* | Wind** | Luminosity | Snow |
|---|---|---|---|---|---|---|---|
| 1777835770 | 22.22° C | 38% | 1018.5 hPa | 0 mm | - | 595 W/m² | - |
| 1777835466 | 22.78° C | 39% | 1018.7 hPa | 0 mm | - | 585 W/m² | - |
| 1777835163 | 22.78° C | 38% | 1018.7 hPa | 0 mm | - | 478 W/m² | - |
| 1777834860 | 22.78° C | 40% | 1019 hPa | 0 mm | - | 505 W/m² | - |
| 1777834557 | 22.78° C | 40% | 1018.8 hPa | 0 mm | - | 554 W/m² | - |
| 1777834256 | 23.33° C | 40% | 1019 hPa | 0 mm | - | 654 W/m² | - |
| 1777833952 | 23.33° C | 39% | 1019 hPa | 0 mm | - | 621 W/m² | - |
| 1777833649 | 22.22° C | 41% | 1019 hPa | 0 mm | - | 560 W/m² | - |
| 1777833346 | 22.22° C | 37% | 1019 hPa | 0 mm | - | 341 W/m² | - |
| 1777833043 | 21.67° C | 40% | 1019.1 hPa | 0 mm | - | 659 W/m² | - |
| 1777832741 | 21.67° C | 39% | 1019.1 hPa | 0 mm | - | 656 W/m² | - |
| 1777832439 | 21.67° C | 40% | 1019.1 hPa | 0 mm | - | 629 W/m² | - |
| 1777832136 | 21.67° C | 38% | 1019.6 hPa | 0 mm | - | 257 W/m² | - |
| 1777831832 | 21.67° C | 40% | 1019.3 hPa | 0 mm | - | 256 W/m² | - |
| 1777831529 | 21.67° C | 39% | 1019.5 hPa | 0 mm | - | 648 W/m² | - |
| 1777831227 | 21.67° C | 39% | 1019.4 hPa | 0 mm | - | 745 W/m² | - |
| 1777830924 | 21.11° C | 39% | 1019.6 hPa | 0 mm | - | 732 W/m² | - |
| 1777830621 | 21.11° C | 38% | 1019.7 hPa | 0 mm | - | 716 W/m² | - |
| 1777830319 | 21.11° C | 38% | 1019.8 hPa | 0 mm | - | 614 W/m² | - |
| 1777830014 | 21.67° C | 38% | 1020 hPa | 0 mm | - | 695 W/m² | - |
| 1777829709 | 21.67° C | 38% | 1019.9 hPa | 0 mm | - | 570 W/m² | - |
| 1777829406 | 21.11° C | 42% | 1020.1 hPa | 0 mm | - | 705 W/m² | - |
| 1777829104 | 21.11° C | 39% | 1020.2 hPa | 0 mm | - | 695 W/m² | - |
| 1777828801 | 22.22° C | 40% | 1020.4 hPa | 0 mm | - | 560 W/m² | - |
| 1777828497 | 21.67° C | 39% | 1020.4 hPa | 0 mm | - | 560 W/m² | - |
* Rain latest hour (hover to see other rain measurements)
** Current wind speed in m/s (hover to see current wind gust speed)